Regional Weather Roundup
Issued by NWS

Home | Current Version | Previous Version | Graphics & Text | Print | Product List | Glossary On
Versions: 1 2 3 4 5 6 7 8 9 10 11 12 13 14 15 16 17 18 19 20 21 22 23 24 25 26 27 28 29 30 31 32 33 34 35 36 37 38 39 40 41 42 43 44 45 46 47 48 49 50
000
ASUS45 KABQ 270301
RWRNM
WEATHER ROUNDUP FOR NEW MEXICO
NATIONAL WEATHER SERVICE ALBUQUERQUE NM
800 PM MST THU FEB 26 2015

NOTE: "FAIR" MEANS FEW OR NO CLOUDS BELOW 12,000 FEET AGL WITH NO
       SIGNIFICANT WEATHER OR OBSTRUCTIONS TO VISION.

      THIS PRODUCT IS RELEASED AS TWO VERSIONS.  ONE VERSION NEAR
      THE TOP OF THE HOUR CONTAINING PRELIMINARY DATA FROM ALBUQUERQUE
      AND OTHER STATIONS.  A FINAL VERSION WITH ADDITIONAL DATA IS
      ISSUED ABOUT 10 MINUTES AFTER THE HOUR.

NMZ501-503-504-510>518-270400-
NORTHWEST PLATEAU/NORTHCENTRAL MOUNTAINS

CITY           SKY/WX    TMP DP  RH WIND       PRES   REMARKS
FARMINGTON     CLOUDY    37  27  67 CALM      29.85R
SANTA FE       CLOUDY    21  16  81 SE22G30   29.98F WCI   5
TAOS           CLOUDY    25  18  74 W13       29.93S WCI  13

$$
NMZ402-403-502-505>509-270400-
WESTCENTRAL MOUNTAINS/SOUTHWEST MOUNTAINS

CITY           SKY/WX    TMP DP  RH WIND       PRES   REMARKS
GALLUP         CLOUDY    35  28  75 SW8       29.86R WCI  29
SILVER CITY    CLOUDY    45  27  49 SE17G26   29.91R

$$
NMZ407-409-411-412-270400-
SOUTHERN DESERTS

CITY           SKY/WX    TMP DP  RH WIND       PRES   REMARKS
DEMING         CLOUDY    47  28  47 MISG      29.89R
ALAMOGORDO     MOCLDY    41  25  52 MISG      29.97R
T OR C         LGT RAIN  39  36  89 N9        29.94R WCI  33

$$
NMZ519>523-270400-
CENTRAL VALLEYS/CENTRAL HIGHLANDS

CITY           SKY/WX    TMP DP  RH WIND       PRES   REMARKS
ALBUQUERQUE    CLOUDY    30  19  63 E30G36    29.97R WCI  15
DOUBLE EAGLE   FLURRIES  28  21  74 N9        29.97R WCI  20
CLINES CORNERS CLOUDY    17  13  84 SE17      29.99S WCI   1
BELEN          CLOUDY    33  24  69 SE14      29.97S WCI  23
SOCORRO        NOT AVBL

$$
NMZ524>526-539-540-270400-
SOUTHCENTRAL MOUNTAINS

CITY           SKY/WX    TMP DP  RH WIND       PRES   REMARKS
RUIDOSO        NOT AVBL

$$
NMZ527>531-270400-
NORTHEAST HIGHLANDS/NORTHEAST PLAINS

CITY           SKY/WX    TMP DP  RH WIND       PRES   REMARKS
LAS VEGAS      SNOW      16  14  92 S13       30.04S VSB 1/2 WCI   2
RATON          LGT SNOW  15  13  91 S14       30.06R FOG     WCI   0
CLAYTON        LGT SNOW  16  13  88 SE15      30.19S FOG     WCI   1

$$
NMZ532>537-270400-
EASTCENTRAL PLAINS

CITY           SKY/WX    TMP DP  RH WIND       PRES   REMARKS
TUCUMCARI      CLOUDY    23  19  85 SE10      30.23R WCI  12
CANNON AFB     NOT AVBL
CLOVIS AIRPORT CLOUDY    21  18  86 SE13      30.22R WCI   9

$$
NMZ028-029-538-270400-
SOUTHEAST PLAINS

CITY           SKY/WX    TMP DP  RH WIND       PRES   REMARKS
ROSWELL        CLOUDY    30  20  66 SE12      30.19S WCI  20
ARTESIA        CLOUDY    30  21  69 SE12      30.22R WCI  21
CARLSBAD       CLOUDY    31  19  61 E12       30.21R WCI  22
HOBBS          CLOUDY    27  16  63 E13G20    30.24R WCI  16


$$


USA.gov is the U.S. government's official web portal to all federal, state and local government web resources and services.